Weather History for Puerto Vallarta, Mexico

Change the Weather History Date:

Wednesday, December 12, 2012

  Actual Average Record
Temperature  
Mean Temperature 76 °F -  
Max Temperature 84 °F 80 °F 87 °F (2005)
Min Temperature 68 °F 60 °F 50 °F (2000)
Cooling Degree Days 11    
Growing Degree Days 26 (Base 50)    
Moisture  
Dew Point 65 °F    
Average Humidity 75    
Maximum Humidity 88    
Minimum Humidity 51    
Precipitation  
Precipitation 0.00 in - - ()
Sea Level Pressure  
Sea Level Pressure 29.94 in    
Wind  
Wind Speed 3 mph ()    
Max Wind Speed 9 mph    
Max Gust Speed -    
Visibility 11.9 miles    
Events      
Averages and records for this station are not official NWS values.
T = Trace of Precipitation, MM = Missing Value Source: Averaged Metar Reports

Daily Weather History Graph

Daily Weather History Graph

Search for Another Location

Airport:

Trip Planner

Search our weather history database for the weather conditions in past years. The results will help you decide how hot, cold, wet, or windy it might be!

Date:

Astronomy

Dec. 12, 2012 Rise Set
Actual Time 7:28 AM CST 6:21 PM CST
Civil Twilight 7:04 AM CST 6:46 PM CST
Nautical Twilight 6:36 AM CST 7:13 PM CST
Astronomical Twilight 6:09 AM CST 7:40 PM CST
Moon 6:38 AM CST (12/12) 5:59 PM CST (12/12)
Length of Visible Light 11h 41m
Length of Day
10h 53m
Waning Crescent, 1% of the Moon is Illuminated
Dec 12
Waning Crescent
Dec 13
New
Dec 19
First Quarter
Dec 28
Full
Jan 4
Last Quarter

Hourly Weather History & Observations

Time (CST) Temp. Heat Index Dew Point Humidity Pressure Visibility Wind Dir Wind Speed Gust Speed Precip Events Conditions
12:45 AM 69.8 °F - 66.2 °F 88% 29.94 in 10.0 mi NNE 4.6 mph - N/A   Clear
1:45 AM 69.8 °F - 64.4 °F 83% 29.94 in 10.0 mi Calm Calm - N/A   Clear
2:45 AM 69.8 °F - 64.4 °F 83% 29.94 in 10.0 mi North 5.8 mph - N/A   Clear
3:45 AM 68.0 °F - 64.4 °F 88% 29.93 in 10.0 mi NNE 4.6 mph - N/A   Clear
4:45 AM 68.0 °F - 64.4 °F 88% 29.92 in 10.0 mi Calm Calm - N/A   Mostly Cloudy
5:47 AM 68.0 °F - 64.4 °F 88% 29.91 in 10.0 mi NNE 3.5 mph - N/A   Mostly Cloudy
6:45 AM 68.0 °F - 64.4 °F 88% 29.92 in 10.0 mi NNE 5.8 mph - N/A   Mostly Cloudy
7:44 AM 68.0 °F - 64.4 °F 88% 29.93 in 12.0 mi Calm Calm - N/A   Mostly Cloudy
8:51 AM 71.6 °F - 64.4 °F 78% 29.95 in 15.0 mi Calm Calm - N/A   Mostly Cloudy
9:44 AM 75.2 °F - 62.6 °F 65% 29.97 in 15.0 mi Calm Calm - N/A   Scattered Clouds
10:45 AM 80.6 °F 81.5 °F 60.8 °F 51% 29.97 in 15.0 mi Calm Calm - N/A   Scattered Clouds
11:44 AM 82.4 °F 83.9 °F 64.4 °F 54% 29.98 in 15.0 mi SSW 6.9 mph - N/A   Scattered Clouds
12:48 PM 84.2 °F 85.6 °F 64.4 °F 51% 29.95 in 15.0 mi SSW 6.9 mph - N/A   Scattered Clouds
1:44 PM 82.4 °F 83.9 °F 64.4 °F 54% 29.95 in 15.0 mi WSW 9.2 mph - N/A   Mostly Cloudy
3:49 PM 80.6 °F 83.2 °F 68.0 °F 65% 29.90 in 15.0 mi SSW 9.2 mph - N/A   Mostly Cloudy
4:49 PM 80.6 °F 83.2 °F 68.0 °F 65% 29.90 in 12.0 mi South 6.9 mph - N/A   Overcast
5:50 PM 78.8 °F - 68.0 °F 69% 29.90 in 12.0 mi SSW 6.9 mph - N/A   Overcast
6:51 PM 78.8 °F - 66.2 °F 65% 29.91 in 12.0 mi South 4.6 mph - N/A   Overcast
7:49 PM 77.0 °F - 68.0 °F 74% 29.93 in 10.0 mi Calm Calm - N/A   Mostly Cloudy
8:49 PM 73.4 °F - 68.0 °F 83% 29.96 in 10.0 mi Calm Calm - N/A   Mostly Cloudy
9:44 PM 73.4 °F - 68.0 °F 83% 29.96 in 10.0 mi Calm Calm - N/A   Mostly Cloudy
10:43 PM 71.6 °F - 66.2 °F 83% 29.98 in 10.0 mi Calm Calm - N/A   Mostly Cloudy
11:43 PM 71.6 °F - 66.2 °F 83% 29.97 in 10.0 mi Calm Calm - N/A   Clear